Location: Normandy Village
(37.8755°N, 122.2655°W)
Time: 14:09:37
(UTC+00:00)

ATLAS 3B R/B - Pass Details

Date: 07 December 2019
Orbit: 1027 x 1168 km, 63.8° (Epoch: 16 January)

Event Time Altitude Azimuth Distance (km) Brightness Sun altitude
Rises 02:18:33 0° 321° (NW) 3,808 5.9 -17.1°
Reaches altitude 10° 02:21:15 10° 315° (NW) 2,866 5.3 -17.6°
Maximum altitude 02:27:35 44° 246° (WSW) 1,447 3.9 -18.8°
Drops below altitude 10° 02:34:05 10° 177° (S) 2,939 5.1 -20.0°
Sets 02:36:54 0° 171° (S) 3,915 5.7 -20.6°
